Location: *
(37.5724°S, 58.0067°E)
Time: 11:11:29
(UTC+00:00)

Cosmos 1707 - Pass Details

Date: 26 September 2020
Orbit: 515 x 530 km, 82.5° (Epoch: 29 October)

Event Time Altitude Azimuth Distance (km) Brightness Sun altitude
Rises 14:46:20 0° 20° (NNE) 2,639 6.0 -8.4°
Reaches altitude 10° 14:48:40 10° 32° (NNE) 1,764 5.0 -8.8°
Maximum altitude 14:51:57 27° 90° (E) 1,048 3.7 -9.5°
Drops below altitude 10° 14:55:18 10° 148° (SSE) 1,796 5.2 -10.1°
Sets 14:57:41 0° 160° (SSE) 2,698 6.2 -10.6°
